Flag for U.S.A. Weather past 2 weeks in St. Croix Falls, Wisconsin, U.S.A.

Now
62 °F

Rain. More clouds than sun.


Feels Like: 62 °F
Forecast: 57 / 71 °F
Wind: 15 mph from North

Location: L O Simenstad Municipal Airport

Current Time: Jul 6, 2015 at 1:28:00 PM

Latest Report: Jul 6, 2015 at 12:50 PM


Visibility: 3 mi

Pressure: 29.92 "Hg

Humidity: 100%

Dew point: 62 °F

Location of St. Croix FallsLocation

Historic Weather in St. Croix Falls — Graph

°F

St. Croix Falls temperature yesterday

Maximum temperature yesterday: 85 °F (at 3:55 PM)
Minimum temperature yesterday: 63 °F (at 5:35 AM)
Average temperature yesterday: 74 °F

Past Weeks' High & Low Weather Summary

 TemperatureHumidityPressure
High85 °F (Jul 5, 3:55 PM)100% (Jun 21, 10:55 PM)30.15 "Hg (Jun 21, 10:55 PM)
Low51 °F (Jun 23, 5:55 AM)35% (Jun 23, 3:55 PM)29.44 "Hg (Jun 22, 9:55 AM)
Average69 °F76%29.97 "Hg
* Reported Jun 21 1:35 PM — Jul 6 12:15 PM, St. Croix Falls, Weather by CustomWeather, © 2015

Note: Actual official high and low records may vary slightly from our data, if they occured in-between our weather recording intervals... More about our weather records

Advertising

St. Croix Falls weather history for previous 24 hours

 ConditionsComfort  
Time TempWeatherWind HumidityBarometerVisibility
12:15 PM
Mon, Jul 6
62 °FLight rain. Mostly cloudy.17 mph100%29.91 "Hg4 mi
11:55 AM64 °FRain. Low clouds.14 mph100%29.89 "Hg3 mi
11:35 AM65 °FHeavy rain. Low clouds.14 mph100%29.88 "Hg2 mi
11:15 AM67 °FLight rain. Low clouds.15 mph100%29.86 "Hg7 mi
10:50 AM70 °FHeavy rain. Mostly cloudy.8 mph100%29.85 "Hg2 mi
10:35 AM71 °FRain. Mostly cloudy.No wind100%29.84 "Hg2 mi
10:15 AM71 °FLow clouds.No wind100%29.84 "Hg10 mi
9:55 AM71 °FLight rain. Low clouds.No wind100%29.83 "Hg10 mi
9:35 AM70 °FLight rain. Low clouds.3 mph100%29.83 "Hg10 mi
9:15 AM70 °FLight rain. Mostly cloudy.3 mph100%29.82 "Hg10 mi
8:55 AM69 °FLight rain. Cloudy.3 mph100%29.81 "Hg10 mi
8:35 AM68 °FRain. Overcast.5 mph100%29.81 "Hg10 mi
8:15 AM68 °FLight rain. More clouds than sun.7 mph100%29.81 "Hg10 mi
7:15 AM68 °FRain. More clouds than sun.8 mph100%29.85 "Hg7 mi
6:55 AM67 °FHeavy rain. Cloudy.7 mph100%29.85 "Hg5 mi
6:35 AM67 °FRain. More clouds than sun.9 mph100%29.86 "Hg5 mi
6:15 AM67 °FRain. Overcast.14 mph100%29.85 "Hg7 mi
5:55 AM67 °FRain. Mostly cloudy.14 mph100%29.84 "Hg7 mi
5:15 AM68 °FHeavy rain. Mostly cloudy.7 mph100%29.86 "Hg5 mi
4:55 AM68 °FHeavy rain. Mostly cloudy.10 mph100%29.84 "Hg7 mi
4:15 AM68 °FRain. Overcast.8 mph100%29.85 "Hg10 mi
3:55 AM68 °FRain. Overcast.18 mph100%29.85 "Hg3 mi
3:35 AM68 °FHeavy rain. Overcast.No wind100%29.89 "Hg2 mi
3:15 AM69 °FHeavy rain. Overcast.7 mph100%29.87 "Hg4 mi
2:55 AM69 °FHeavy rain. Overcast.13 mph100%29.84 "Hg5 mi
2:15 AM71 °FHeavy rain. Overcast.9 mph100%29.87 "Hg4 mi
1:55 AM71 °FHeavy rain. Overcast.9 mph100%29.85 "Hg2 mi
1:35 AM72 °FLight rain. Mostly cloudy.3 mph100%29.84 "Hg7 mi
1:15 AM72 °FLight rain. Overcast.9 mph100%29.85 "Hg7 mi
12:55 AM72 °FHeavy rain. Overcast.8 mph100%29.87 "Hg5 mi
12:35 AM74 °FRain. Overcast.6 mph81%29.89 "Hg7 mi
12:15 AM76 °FMostly cloudy.5 mph73%29.88 "Hg10 mi
11:55 PM
Sun, Jul 5
76 °FMostly cloudy.5 mph73%29.87 "Hg10 mi
11:15 PM76 °FPassing clouds.7 mph72%29.83 "Hg10 mi
10:15 PM77 °FClear.9 mph69%29.85 "Hg10 mi
9:55 PM78 °FSunny.10 mph67%29.84 "Hg10 mi
9:35 PM78 °FSunny.14 mph68%29.84 "Hg10 mi
9:15 PM78 °FSunny.10 mph73%29.83 "Hg10 mi
8:55 PM78 °FSunny.10 mph72%29.83 "Hg10 mi
8:35 PM79 °FSunny.10 mph70%29.83 "Hg10 mi
8:15 PM80 °FSunny.15 mph67%29.83 "Hg10 mi
7:55 PM81 °FSunny.16 mph65%29.84 "Hg10 mi
7:35 PM82 °FScattered clouds.14 mph66%29.85 "Hg10 mi
7:15 PM82 °FPartly sunny.15 mph65%29.85 "Hg10 mi
6:55 PM82 °FPartly sunny.16 mph65%29.86 "Hg10 mi
6:35 PM83 °FSunny.20 mph62%29.86 "Hg10 mi
6:15 PM84 °FSunny.16 mph61%29.86 "Hg10 mi
5:55 PM84 °FScattered clouds.16 mph60%29.87 "Hg10 mi
5:35 PM84 °FScattered clouds.14 mph62%29.87 "Hg10 mi
5:15 PM85 °FSunny.16 mph60%29.87 "Hg10 mi
4:55 PM84 °FSunny.18 mph60%29.87 "Hg10 mi
4:15 PM84 °FSunny.14 mph59%29.88 "Hg10 mi
3:55 PM85 °FSunny.14 mph60%29.90 "Hg10 mi
3:35 PM84 °FSunny.17 mph59%29.90 "Hg10 mi
3:15 PM84 °FSunny.14 mph58%29.90 "Hg10 mi
2:55 PM83 °FSunny.10 mph59%29.91 "Hg10 mi
2:15 PM82 °FPartly sunny.12 mph60%29.92 "Hg10 mi
1:55 PM82 °FPartly sunny.15 mph60%29.93 "Hg10 mi
1:35 PM82 °FScattered clouds.12 mph59%29.93 "Hg10 mi
1:15 PM81 °FSunny.16 mph61%29.93 "Hg10 mi
Weather by CustomWeather, © 2015

See weather overviewHow to use our weather pages